EW1644 Weather Reports


time (UTC)temp
F
wind
direction
speed
knots
gust
knots
rain 1hr
in
rain 24hr
in
rain mn
in
humidity
%
barometer
mb
20260505064550 34 87 0.9 2.6 0.00 0.00 0.00 77 1009.6
20260505063047 35 80 0.9 1.7 0.00 0.00 0.00 73 1009.3
20260505061546 35 80 0.9 1.7 0.00 0.00 0.00 75 1009.4
20260505060040 35 78 0.0 1.7 0.00 0.00 0.00 73 1009.4
20260505054543 35 78 0.9 1.7 0.00 0.00 0.00 78 1009.2
20260505053044 36 78 0.0 0.9 0.00 0.00 0.00 78 1009.5
20260505051537 36 78 0.0 0.9 0.00 0.00 0.00 77 1009.5
20260505041535 36 287 0.0 3.5 0.00 0.00 0.00 80 1009.2
20260505040035 36 79 0.0 1.7 0.00 0.00 0.00 81 1009.2
20260505034536 36 79 0.9 1.7 0.00 0.00 0.00 82 1009.2
20260505033059 36 78 0.0 1.7 0.00 0.00 0.00 84 1008.8
20260505031537 36 79 0.0 1.7 0.00 0.00 0.00 83 1008.8
20260505030033 36 79 0.9 1.7 0.00 0.00 0.00 84 1008.5
20260505024533 37 79 0.9 1.7 0.00 0.00 0.00 83 1008.3
20260505023034 37 103 0.0 1.7 0.00 0.00 0.00 82 1008.0
20260505021630 37 94 0.9 2.6 0.00 0.00 0.00 83 1007.6
20260505020030 37 60 0.9 1.7 0.00 0.00 0.00 87 1007.5
20260505014532 38 60 0.9 1.7 0.00 0.00 0.00 86 1007.2
20260505013030 38 59 0.0 0.9 0.00 0.00 0.00 87 1007.0
20260505011530 39 60 0.9 1.7 0.00 0.00 0.00 88 1007.2
20260505010029 40 59 0.0 0.9 0.00 0.00 0.00 88 1007.1
20260505004539 40 59 0.0 0.9 0.00 0.00 0.00 87 1007.3
20260505003027 40 53 0.0 0.9 0.00 0.00 0.00 85 1007.3
20260505001526 40 49 0.0 0.9 0.00 0.00 0.00 85 1007.4
20260505000026 40 50 0.0 0.9 0.00 0.00 0.00 85 1007.6
20260504234530 40 67 0.0 1.7 0.00 0.00 0.00 86 1007.6
20260504233025 39 78 0.0 0.9 0.00 0.00 0.00 87 1007.6
20260504231537 39 50 0.0 1.7 0.00 0.00 0.00 88 1007.7
20260504230024 38 42 0.0 0.0 0.00 0.00 0.00 91 1007.2
20260504224523 37 43 0.0 1.7 0.00 0.00 0.00 90 1007.1
20260504223023 36 100 0.9 6.1 0.00 0.00 0.00 88 1007.1
20260504221524 39 150 0.9 6.1 0.00 0.00 0.00 86 1007.6
20260504220021 41 54 0.0 0.9 0.00 0.00 0.00 86 1007.0
20260504214526 41 49 0.0 0.0 0.00 0.00 0.00 85 1006.8
20260504213019 40 47 0.0 1.7 0.00 0.00 0.00 87 1006.9
20260504211517 39 338 0.0 1.7 0.00 0.00 0.00 90 1007.3
20260504210017 38 347 0.0 4.3 0.00 0.00 0.00 89 1008.1
20260504204537 39 81 3.5 8.7 0.00 0.00 0.00 82 1008.3
20260504203017 42 34 0.0 3.5 0.00 0.00 0.00 79 1007.2
20260504201516 42 46 0.0 4.3 0.00 0.00 0.00 77 1007.3
20260504200018 43 91 0.9 3.5 0.00 0.00 0.00 82 1007.2
20260504194514 42 45 0.0 2.6 0.00 0.00 0.00 82 1007.4
20260504193021 42 360 0.9 5.2 0.00 0.00 0.00 88 1007.5
20260504191513 40 354 0.9 5.2 0.00 0.00 0.00 88 1007.7
20260504190012 41 18 1.7 7.0 0.00 0.00 0.00 85 1007.5
20260504184510 42 22 0.0 2.6 0.00 0.00 0.00 87 1007.7
20260504183009 41 70 0.0 1.7 0.00 0.00 0.00 89 1007.9
20260504181510 39 79 0.0 2.6 0.00 0.00 0.00 89 1008.4
20260504180007 38 334 0.9 3.5 0.00 0.00 0.00 94 1008.7
20260504174506 35 286 0.0 2.6 0.00 0.00 0.00 93 1008.7
20260504173006 34 276 0.0 0.9 0.00 0.00 0.00 90 1009.4
20260504171518 35 229 0.0 5.2 0.00 0.00 0.00 85 1009.6
20260504081544 34 83 0.0 0.0 0.00 0.00 0.00 60 1011.7